THT7 KLAX-NTAA

Flight info

Callsign THT7
Flight time N/A
Altitude 34000
Route SUMMR2 FICKY DCT HILCO DCT 2825N12320W 1800N12935W/N0480F360 DCT BIGBY G575 WIBIG/N0472F380 G575 ORARE DCT ASOKI
Aircraft A343/H-SDE2E3FGHIJ4J5M1RWXY/LB1D1

Departure

Time 2026-04-20 17:42
Airport Los Angeles International Airport (KLAX)

Arrival

Time N/A
Airport Fa'a'ā International Airport (NTAA)
Time Latitude Longitude Altitude Speed Heading
2026-04-20 16:52 33.94023 -118.40928 97 ft 0 kts 264°
2026-04-20 17:18 33.94023 -118.40923 96 ft 3 kts 263°
2026-04-20 17:18 33.94026 -118.40899 95 ft 3 kts 262°
2026-04-20 17:18 33.94028 -118.40875 96 ft 3 kts 258°
2026-04-20 17:18 33.94034 -118.40852 95 ft 3 kts 236°
2026-04-20 17:19 33.94047 -118.40836 96 ft 3 kts 201°
2026-04-20 17:19 33.94065 -118.40832 97 ft 1 kts 173°
2026-04-20 17:19 33.94066 -118.40832 97 ft 0 kts 173°
2026-04-20 17:26 33.94056 -118.40830 98 ft 1 kts 173°
2026-04-20 17:26 33.94047 -118.40829 99 ft 2 kts 173°
2026-04-20 17:27 33.94032 -118.40827 99 ft 2 kts 173°
2026-04-20 17:27 33.94030 -118.40827 99 ft 0 kts 173°
2026-04-20 17:29 33.94022 -118.40826 99 ft 3 kts 173°
2026-04-20 17:29 33.93998 -118.40822 100 ft 5 kts 173°
2026-04-20 17:29 33.93953 -118.40816 99 ft 7 kts 173°
2026-04-20 17:29 33.93904 -118.40795 100 ft 9 kts 146°
2026-04-20 17:30 33.93852 -118.40746 100 ft 9 kts 149°
2026-04-20 17:30 33.93814 -118.40686 101 ft 10 kts 108°
2026-04-20 17:30 33.93818 -118.40591 98 ft 12 kts 83°
2026-04-20 17:30 33.93827 -118.40496 101 ft 11 kts 83°
2026-04-20 17:31 33.93836 -118.40411 100 ft 11 kts 83°
2026-04-20 17:31 33.93846 -118.40316 99 ft 11 kts 83°
2026-04-20 17:31 33.93856 -118.40215 102 ft 13 kts 83°
2026-04-20 17:31 33.93866 -118.40115 103 ft 11 kts 83°
2026-04-20 17:32 33.93876 -118.40023 100 ft 11 kts 83°
2026-04-20 17:32 33.93886 -118.39932 102 ft 11 kts 83°
2026-04-20 17:32 33.93894 -118.39844 101 ft 11 kts 83°
2026-04-20 17:32 33.93904 -118.39745 100 ft 12 kts 83°
2026-04-20 17:33 33.93914 -118.39647 100 ft 11 kts 82°
2026-04-20 17:33 33.93924 -118.39554 99 ft 11 kts 82°
2026-04-20 17:33 33.93933 -118.39467 98 ft 11 kts 83°
2026-04-20 17:33 33.93943 -118.39368 99 ft 12 kts 83°
2026-04-20 17:34 33.93953 -118.39263 100 ft 15 kts 83°
2026-04-20 17:34 33.93967 -118.39139 100 ft 15 kts 83°
2026-04-20 17:34 33.93978 -118.39022 98 ft 15 kts 83°
2026-04-20 17:34 33.93992 -118.38886 98 ft 17 kts 83°
2026-04-20 17:35 33.94006 -118.38754 98 ft 15 kts 83°
2026-04-20 17:35 33.94017 -118.38637 100 ft 13 kts 83°
2026-04-20 17:35 33.94028 -118.38533 102 ft 12 kts 83°
2026-04-20 17:35 33.94038 -118.38437 102 ft 11 kts 83°
2026-04-20 17:36 33.94047 -118.38348 99 ft 10 kts 83°
2026-04-20 17:36 33.94056 -118.38265 102 ft 10 kts 83°
2026-04-20 17:36 33.94065 -118.38172 98 ft 12 kts 83°
2026-04-20 17:36 33.94072 -118.38102 99 ft 0 kts 82°
2026-04-20 17:38 33.94074 -118.38086 100 ft 6 kts 82°
2026-04-20 17:39 33.94065 -118.38028 99 ft 9 kts 121°
2026-04-20 17:39 33.94007 -118.38000 99 ft 9 kts 176°
2026-04-20 17:39 33.93985 -118.38026 98 ft 3 kts 242°
2026-04-20 17:39 33.93980 -118.38060 99 ft 5 kts 261°
2026-04-20 17:40 33.93979 -118.38073 97 ft 0 kts 263°
2026-04-20 17:41 33.93975 -118.38109 98 ft 18 kts 263°
2026-04-20 17:41 33.93938 -118.38475 106 ft 70 kts 263°
2026-04-20 17:41 33.93858 -118.39253 98 ft 116 kts 263°
2026-04-20 17:41 33.93742 -118.40381 104 ft 154 kts 262°
2026-04-20 17:42 33.93595 -118.41754 336 ft 168 kts 261°
2026-04-20 17:42 33.93422 -118.43156 789 ft 171 kts 260°
2026-04-20 17:42 33.93266 -118.44596 1285 ft 177 kts 263°
2026-04-20 17:42 33.93135 -118.46135 1522 ft 194 kts 264°
2026-04-20 17:43 33.93001 -118.47823 1732 ft 213 kts 264°
2026-04-20 17:43 33.92852 -118.49703 1901 ft 237 kts 264°
2026-04-20 17:43 33.92689 -118.51735 2238 ft 254 kts 264°
2026-04-20 17:43 33.92515 -118.53879 2785 ft 263 kts 263°
2026-04-20 17:44 33.92331 -118.56107 3375 ft 269 kts 263°
2026-04-20 17:44 33.92145 -118.58371 3990 ft 274 kts 263°
2026-04-20 17:44 33.91956 -118.60656 4709 ft 275 kts 263°
2026-04-20 17:44 33.91797 -118.62961 5383 ft 277 kts 266°
2026-04-20 17:45 33.91759 -118.65290 6059 ft 279 kts 268°
2026-04-20 17:45 33.91752 -118.67636 6742 ft 280 kts 268°
2026-04-20 17:45 33.91694 -118.69978 7385 ft 280 kts 261°
2026-04-20 17:45 33.91201 -118.72236 7986 ft 280 kts 243°
2026-04-20 17:46 33.90119 -118.74166 8603 ft 279 kts 227°
2026-04-20 17:46 33.88781 -118.75860 9214 ft 280 kts 224°
2026-04-20 17:46 33.87392 -118.77512 9838 ft 281 kts 223°
2026-04-20 17:46 33.85982 -118.79170 10297 ft 288 kts 223°
2026-04-20 17:47 33.84530 -118.80872 10505 ft 302 kts 223°
2026-04-20 17:47 33.82991 -118.82676 10714 ft 316 kts 223°
2026-04-20 17:47 33.81380 -118.84562 10909 ft 330 kts 223°
2026-04-20 17:47 33.79705 -118.86523 11109 ft 343 kts 223°
2026-04-20 17:48 33.77963 -118.88561 11334 ft 355 kts 223°
2026-04-20 17:48 33.76179 -118.90648 11708 ft 361 kts 223°
2026-04-20 17:48 33.74372 -118.92761 12185 ft 364 kts 223°
2026-04-20 17:48 33.72554 -118.94886 12667 ft 366 kts 223°
2026-04-20 17:49 33.70720 -118.97026 13214 ft 368 kts 223°
2026-04-20 17:49 33.68884 -118.99169 13748 ft 369 kts 223°
2026-04-20 17:49 33.67035 -119.01324 14224 ft 372 kts 223°
2026-04-20 17:49 33.65174 -119.03493 14687 ft 374 kts 223°
2026-04-20 17:50 33.63306 -119.05667 15156 ft 376 kts 223°
2026-04-20 17:50 33.62062 -119.07116 15477 ft 377 kts 223°
2026-04-20 17:50 33.60170 -119.09316 15953 ft 379 kts 223°
2026-04-20 17:50 33.57657 -119.12236 16561 ft 382 kts 223°
2026-04-20 17:51 33.55743 -119.14459 16989 ft 384 kts 223°
2026-04-20 17:51 33.53817 -119.16695 17440 ft 386 kts 223°
2026-04-20 17:51 33.52510 -119.18211 17741 ft 388 kts 223°
2026-04-20 17:51 33.50593 -119.20433 18183 ft 390 kts 223°
2026-04-20 17:52 33.48639 -119.22697 18594 ft 392 kts 223°
2026-04-20 17:52 33.46672 -119.24975 18972 ft 394 kts 223°
2026-04-20 17:52 33.44698 -119.27259 19406 ft 395 kts 223°
2026-04-20 17:52 33.42715 -119.29552 19794 ft 397 kts 223°
2026-04-20 17:53 33.40724 -119.31852 20150 ft 400 kts 223°